User: anonymous   Login
Location: Unspecified
(0.0000°N, 0.0000°E)
Time: 02:56:03
(UTC+00:00)
Language:

GALILEO 11 (268) - Orbit

View from above orbital plane
View from above orbital plane
View from above satellite
View from above satellite

Ground track
Ground track

The orbit data is extracted from the following two-line orbital elements,

1 41175U 15079B   17231.98003433 -.00000002  00000-0  00000+0 0  9996
2 41175  54.9203 189.9554 0005222 286.7285  73.1612  1.70473253 10411
Epoch (UTC): 19 August 2017 23:31:14
Eccentricity: 0.0005222
inclination: 54.9203°
perigee height: 23206 km
apogee height: 23237 km
right ascension of ascending node: 189.9554°
argument of perigee: 286.7285°
revolutions per day: 1.70473253
mean anomaly at epoch: 73.1612°
orbit number at epoch: 1041

The dashed part of the orbit path shows where the satellite is in the earth's shadow,  

DLR